owner,sensor,date,latitude,longitude,vertical_datum,sea_water_practical_salinity,qcFlag 
NERRS,ioos:station:NOAA.NERRS:gndbhwq:1,2013-10-01T00:45:00Z,30.4178,-88.4054,0.0,18.5,1111122 
NERRS,ioos:station:NOAA.NERRS:gndbhwq:1,2013-10-01T01:45:00Z,30.4178,-88.4054,0.0,18.6,1111122 
NERRS,ioos:station:NOAA.NERRS:gndbhwq:1,2013-10-01T02:45:00Z,30.4178,-88.4054,0.0,18.6,1111122 
NERRS,ioos:station:NOAA.NERRS:gndbhwq:1,2013-10-01T03:45:00Z,30.4178,-88.4054,0.0,18.6,1111122 
NERRS,ioos:station:NOAA.NERRS:gndbhwq:1,2013-10-01T04:45:00Z,30.4178,-88.4054,0.0,18.7,1111122 
NERRS,ioos:station:NOAA.NERRS:gndbhwq:1,2013-10-01T05:45:00Z,30.4178,-88.4054,0.0,18.8,1111122 
NERRS,ioos:station:NOAA.NERRS:gndbhwq:1,2013-10-01T06:45:00Z,30.4178,-88.4054,0.0,18.8,1111122 
NERRS,ioos:station:NOAA.NERRS:gndbhwq:1,2013-10-01T07:45:00Z,30.4178,-88.4054,0.0,18.8,1111122 
NERRS,ioos:station:NOAA.NERRS:gndbhwq:1,2013-10-01T08:45:00Z,30.4178,-88.4054,0.0,18.8,1111122 
NERRS,ioos:station:NOAA.NERRS:gndbhwq:1,2013-10-01T09:45:00Z,30.4178,-88.4054,0.0,18.9,1111122 
NERRS,ioos:station:NOAA.NERRS:gndbhwq:1,2013-10-01T10:45:00Z,30.4178,-88.4054,0.0,18.9,1111122 
NERRS,ioos:station:NOAA.NERRS:gndbhwq:1,2013-10-01T11:45:00Z,30.4178,-88.4054,0.0,19.0,1111122 
NERRS,ioos:station:NOAA.NERRS:gndbhwq:1,2013-10-01T12:45:00Z,30.4178,-88.4054,0.0,19.2,1111122 
NERRS,ioos:station:NOAA.NERRS:gndbhwq:1,2013-10-01T13:45:00Z,30.4178,-88.4054,0.0,19.4,1111122 
NERRS,ioos:station:NOAA.NERRS:gndbhwq:1,2013-10-01T14:45:00Z,30.4178,-88.4054,0.0,19.0,1111122 
NERRS,ioos:station:NOAA.NERRS:gndbhwq:1,2013-10-01T15:45:00Z,30.4178,-88.4054,0.0,18.8,1111122 
NERRS,ioos:station:NOAA.NERRS:gndbhwq:1,2013-10-01T16:45:00Z,30.4178,-88.4054,0.0,18.8,1111122 
NERRS,ioos:station:NOAA.NERRS:gndbhwq:1,2013-10-01T17:45:00Z,30.4178,-88.4054,0.0,18.8,1111122 
NERRS,ioos:station:NOAA.NERRS:gndbhwq:1,2013-10-01T18:45:00Z,30.4178,-88.4054,0.0,18.7,1111122 
NERRS,ioos:station:NOAA.NERRS:gndbhwq:1,2013-10-01T19:45:00Z,30.4178,-88.4054,0.0,18.7,1111122 
NERRS,ioos:station:NOAA.NERRS:gndbhwq:1,2013-10-01T20:45:00Z,30.4178,-88.4054,0.0,18.7,1111122 
NERRS,ioos:station:NOAA.NERRS:gndbhwq:1,2013-10-01T21:45:00Z,30.4178,-88.4054,0.0,18.7,1111122 
NERRS,ioos:station:NOAA.NERRS:gndbhwq:1,2013-10-01T22:45:00Z,30.4178,-88.4054,0.0,18.7,1111122 
NERRS,ioos:station:NOAA.NERRS:gndbhwq:1,2013-10-01T23:45:00Z,30.4178,-88.4054,0.0,18.8,1111122 
NERRS,ioos:station:NOAA.NERRS:gndbhwq:1,2013-10-02T00:45:00Z,30.4178,-88.4054,0.0,18.8,1111122 
NERRS,ioos:station:NOAA.NERRS:gndbhwq:1,2013-10-02T01:45:00Z,30.4178,-88.4054,0.0,18.9,1111122 
NERRS,ioos:station:NOAA.NERRS:gndbhwq:1,2013-10-02T02:45:00Z,30.4178,-88.4054,0.0,19.0,1111122 
NERRS,ioos:station:NOAA.NERRS:gndbhwq:1,2013-10-02T03:45:00Z,30.4178,-88.4054,0.0,19.0,1111122 
NERRS,ioos:station:NOAA.NERRS:gndbhwq:1,2013-10-02T04:45:00Z,30.4178,-88.4054,0.0,19.0,1111122 
NERRS,ioos:station:NOAA.NERRS:gndbhwq:1,2013-10-02T05:45:00Z,30.4178,-88.4054,0.0,19.1,1111122 
NERRS,ioos:station:NOAA.NERRS:gndbhwq:1,2013-10-02T06:45:00Z,30.4178,-88.4054,0.0,19.1,1111122 
NERRS,ioos:station:NOAA.NERRS:gndbhwq:1,2013-10-02T07:45:00Z,30.4178,-88.4054,0.0,19.1,1111122 
NERRS,ioos:station:NOAA.NERRS:gndbhwq:1,2013-10-02T08:45:00Z,30.4178,-88.4054,0.0,19.1,1111122 
NERRS,ioos:station:NOAA.NERRS:gndbhwq:1,2013-10-02T09:45:00Z,30.4178,-88.4054,0.0,19.1,1111122 
NERRS,ioos:station:NOAA.NERRS:gndbhwq:1,2013-10-02T10:45:00Z,30.4178,-88.4054,0.0,19.1,1111122 
NERRS,ioos:station:NOAA.NERRS:gndbhwq:1,2013-10-02T11:45:00Z,30.4178,-88.4054,0.0,19.1,1111122 
NERRS,ioos:station:NOAA.NERRS:gndbhwq:1,2013-10-02T12:45:00Z,30.4178,-88.4054,0.0,19.1,1111122 
NERRS,ioos:station:NOAA.NERRS:gndbhwq:1,2013-10-02T13:45:00Z,30.4178,-88.4054,0.0,19.4,1111122 
NERRS,ioos:station:NOAA.NERRS:gndbhwq:1,2013-10-02T14:45:00Z,30.4178,-88.4054,0.0,19.1,1111122 
NERRS,ioos:station:NOAA.NERRS:gndbhwq:1,2013-10-02T15:45:00Z,30.4178,-88.4054,0.0,19.0,1111122 
NERRS,ioos:station:NOAA.NERRS:gndbhwq:1,2013-10-02T16:45:00Z,30.4178,-88.4054,0.0,18.9,1111122 
NERRS,ioos:station:NOAA.NERRS:gndbhwq:1,2013-10-02T17:45:00Z,30.4178,-88.4054,0.0,18.8,1111122 
NERRS,ioos:station:NOAA.NERRS:gndbhwq:1,2013-10-02T18:45:00Z,30.4178,-88.4054,0.0,18.7,1111122 
NERRS,ioos:station:NOAA.NERRS:gndbhwq:1,2013-10-02T19:45:00Z,30.4178,-88.4054,0.0,18.7,1111122 
NERRS,ioos:station:NOAA.NERRS:gndbhwq:1,2013-10-02T20:45:00Z,30.4178,-88.4054,0.0,18.8,1111122 
NERRS,ioos:station:NOAA.NERRS:gndbhwq:1,2013-10-02T21:45:00Z,30.4178,-88.4054,0.0,18.8,1111122 
NERRS,ioos:station:NOAA.NERRS:gndbhwq:1,2013-10-02T22:45:00Z,30.4178,-88.4054,0.0,18.8,1111122 
NERRS,ioos:station:NOAA.NERRS:gndbhwq:1,2013-10-02T23:45:00Z,30.4178,-88.4054,0.0,18.9,1111122 
NERRS,ioos:station:NOAA.NERRS:gndbhwq:1,2013-10-03T00:45:00Z,30.4178,-88.4054,0.0,18.9,1111122 
NERRS,ioos:station:NOAA.NERRS:gndbhwq:1,2013-10-03T01:45:00Z,30.4178,-88.4054,0.0,19.1,1111122 
NERRS,ioos:station:NOAA.NERRS:gndbhwq:1,2013-10-03T02:45:00Z,30.4178,-88.4054,0.0,19.2,1111122 
NERRS,ioos:station:NOAA.NERRS:gndbhwq:1,2013-10-03T03:45:00Z,30.4178,-88.4054,0.0,19.3,1111122 
NERRS,ioos:station:NOAA.NERRS:gndbhwq:1,2013-10-03T04:45:00Z,30.4178,-88.4054,0.0,19.3,1111122 
NERRS,ioos:station:NOAA.NERRS:gndbhwq:1,2013-10-03T05:45:00Z,30.4178,-88.4054,0.0,19.3,1111122 
NERRS,ioos:station:NOAA.NERRS:gndbhwq:1,2013-10-03T06:45:00Z,30.4178,-88.4054,0.0,19.3,1111122 
NERRS,ioos:station:NOAA.NERRS:gndbhwq:1,2013-10-03T07:45:00Z,30.4178,-88.4054,0.0,19.4,1111122 
NERRS,ioos:station:NOAA.NERRS:gndbhwq:1,2013-10-03T08:45:00Z,30.4178,-88.4054,0.0,19.4,1111122 
NERRS,ioos:station:NOAA.NERRS:gndbhwq:1,2013-10-03T09:45:00Z,30.4178,-88.4054,0.0,19.4,1111122 
NERRS,ioos:station:NOAA.NERRS:gndbhwq:1,2013-10-03T10:45:00Z,30.4178,-88.4054,0.0,19.5,1111122 
NERRS,ioos:station:NOAA.NERRS:gndbhwq:1,2013-10-03T11:45:00Z,30.4178,-88.4054,0.0,19.5,1111122 
NERRS,ioos:station:NOAA.NERRS:gndbhwq:1,2013-10-03T12:45:00Z,30.4178,-88.4054,0.0,19.5,1111122 
NERRS,ioos:station:NOAA.NERRS:gndbhwq:1,2013-10-03T13:45:00Z,30.4178,-88.4054,0.0,19.4,1111122 
NERRS,ioos:station:NOAA.NERRS:gndbhwq:1,2013-10-03T14:45:00Z,30.4178,-88.4054,0.0,19.2,1111122 
NERRS,ioos:station:NOAA.NERRS:gndbhwq:1,2013-10-03T15:45:00Z,30.4178,-88.4054,0.0,19.1,1111122 
NERRS,ioos:station:NOAA.NERRS:gndbhwq:1,2013-10-03T16:45:00Z,30.4178,-88.4054,0.0,19.1,1111122 
NERRS,ioos:station:NOAA.NERRS:gndbhwq:1,2013-10-03T17:45:00Z,30.4178,-88.4054,0.0,19.1,1111122 
NERRS,ioos:station:NOAA.NERRS:gndbhwq:1,2013-10-03T18:45:00Z,30.4178,-88.4054,0.0,19.1,1111122 
NERRS,ioos:station:NOAA.NERRS:gndbhwq:1,2013-10-03T19:45:00Z,30.4178,-88.4054,0.0,19.1,1111122 
NERRS,ioos:station:NOAA.NERRS:gndbhwq:1,2013-10-03T20:45:00Z,30.4178,-88.4054,0.0,19.1,1111122 
NERRS,ioos:station:NOAA.NERRS:gndbhwq:1,2013-10-03T21:45:00Z,30.4178,-88.4054,0.0,19.3,1111122 
NERRS,ioos:station:NOAA.NERRS:gndbhwq:1,2013-10-03T22:45:00Z,30.4178,-88.4054,0.0,19.1,1111122 
NERRS,ioos:station:NOAA.NERRS:gndbhwq:1,2013-10-03T23:45:00Z,30.4178,-88.4054,0.0,19.1,1111122 
NERRS,ioos:station:NOAA.NERRS:gndbhwq:1,2013-10-04T00:45:00Z,30.4178,-88.4054,0.0,19.1,1111122 
NERRS,ioos:station:NOAA.NERRS:gndbhwq:1,2013-10-04T01:45:00Z,30.4178,-88.4054,0.0,19.2,1111122 
NERRS,ioos:station:NOAA.NERRS:gndbhwq:1,2013-10-04T02:45:00Z,30.4178,-88.4054,0.0,19.2,1111122 
NERRS,ioos:station:NOAA.NERRS:gndbhwq:1,2013-10-04T03:45:00Z,30.4178,-88.4054,0.0,19.3,1111122 
NERRS,ioos:station:NOAA.NERRS:gndbhwq:1,2013-10-04T04:45:00Z,30.4178,-88.4054,0.0,19.1,1111122 
NERRS,ioos:station:NOAA.NERRS:gndbhwq:1,2013-10-04T05:45:00Z,30.4178,-88.4054,0.0,19.1,1111122 
NERRS,ioos:station:NOAA.NERRS:gndbhwq:1,2013-10-04T06:45:00Z,30.4178,-88.4054,0.0,19.0,1111122 
NERRS,ioos:station:NOAA.NERRS:gndbhwq:1,2013-10-04T07:45:00Z,30.4178,-88.4054,0.0,19.1,1111122 
NERRS,ioos:station:NOAA.NERRS:gndbhwq:1,2013-10-04T08:45:00Z,30.4178,-88.4054,0.0,19.1,1111122 
NERRS,ioos:station:NOAA.NERRS:gndbhwq:1,2013-10-04T09:45:00Z,30.4178,-88.4054,0.0,19.1,1111122 
NERRS,ioos:station:NOAA.NERRS:gndbhwq:1,2013-10-04T10:45:00Z,30.4178,-88.4054,0.0,19.2,1111122 
NERRS,ioos:station:NOAA.NERRS:gndbhwq:1,2013-10-04T11:45:00Z,30.4178,-88.4054,0.0,19.2,1111122 
NERRS,ioos:station:NOAA.NERRS:gndbhwq:1,2013-10-04T12:45:00Z,30.4178,-88.4054,0.0,19.2,1111122 
NERRS,ioos:station:NOAA.NERRS:gndbhwq:1,2013-10-04T13:45:00Z,30.4178,-88.4054,0.0,19.4,1111122 
NERRS,ioos:station:NOAA.NERRS:gndbhwq:1,2013-10-04T14:45:00Z,30.4178,-88.4054,0.0,19.5,1111122 
NERRS,ioos:station:NOAA.NERRS:gndbhwq:1,2013-10-04T15:45:00Z,30.4178,-88.4054,0.0,19.6,1111122 
NERRS,ioos:station:NOAA.NERRS:gndbhwq:1,2013-10-04T16:45:00Z,30.4178,-88.4054,0.0,19.3,1111122 
NERRS,ioos:station:NOAA.NERRS:gndbhwq:1,2013-10-04T17:45:00Z,30.4178,-88.4054,0.0,19.2,1111122 
NERRS,ioos:station:NOAA.NERRS:gndbhwq:1,2013-10-04T18:45:00Z,30.4178,-88.4054,0.0,19.2,1111122 
NERRS,ioos:station:NOAA.NERRS:gndbhwq:1,2013-10-04T19:45:00Z,30.4178,-88.4054,0.0,19.2,1111122 
NERRS,ioos:station:NOAA.NERRS:gndbhwq:1,2013-10-04T20:45:00Z,30.4178,-88.4054,0.0,19.2,1111122 
NERRS,ioos:station:NOAA.NERRS:gndbhwq:1,2013-10-04T21:45:00Z,30.4178,-88.4054,0.0,19.2,1111122 
NERRS,ioos:station:NOAA.NERRS:gndbhwq:1,2013-10-04T22:45:00Z,30.4178,-88.4054,0.0,19.1,1111122 
NERRS,ioos:station:NOAA.NERRS:gndbhwq:1,2013-10-04T23:45:00Z,30.4178,-88.4054,0.0,19.1,1111122 
NERRS,ioos:station:NOAA.NERRS:gndbhwq:1,2013-10-05T00:45:00Z,30.4178,-88.4054,0.0,19.2,1111122 
NERRS,ioos:station:NOAA.NERRS:gndbhwq:1,2013-10-05T01:45:00Z,30.4178,-88.4054,0.0,19.2,1111122 
NERRS,ioos:station:NOAA.NERRS:gndbhwq:1,2013-10-05T02:45:00Z,30.4178,-88.4054,0.0,19.3,1111122 
NERRS,ioos:station:NOAA.NERRS:gndbhwq:1,2013-10-05T03:45:00Z,30.4178,-88.4054,0.0,19.4,1111122 
NERRS,ioos:station:NOAA.NERRS:gndbhwq:1,2013-10-05T04:45:00Z,30.4178,-88.4054,0.0,19.5,1111122 
NERRS,ioos:station:NOAA.NERRS:gndbhwq:1,2013-10-05T05:45:00Z,30.4178,-88.4054,0.0,19.5,1111122 
NERRS,ioos:station:NOAA.NERRS:gndbhwq:1,2013-10-05T06:45:00Z,30.4178,-88.4054,0.0,19.5,1111122 
NERRS,ioos:station:NOAA.NERRS:gndbhwq:1,2013-10-05T07:45:00Z,30.4178,-88.4054,0.0,19.5,1111122 
NERRS,ioos:station:NOAA.NERRS:gndbhwq:1,2013-10-05T08:45:00Z,30.4178,-88.4054,0.0,19.5,1111122 
NERRS,ioos:station:NOAA.NERRS:gndbhwq:1,2013-10-05T09:45:00Z,30.4178,-88.4054,0.0,19.6,1111122 
NERRS,ioos:station:NOAA.NERRS:gndbhwq:1,2013-10-05T10:45:00Z,30.4178,-88.4054,0.0,19.5,1111122 
NERRS,ioos:station:NOAA.NERRS:gndbhwq:1,2013-10-05T11:45:00Z,30.4178,-88.4054,0.0,19.7,1111122 
NERRS,ioos:station:NOAA.NERRS:gndbhwq:1,2013-10-05T12:45:00Z,30.4178,-88.4054,0.0,19.8,1111122 
NERRS,ioos:station:NOAA.NERRS:gndbhwq:1,2013-10-05T15:45:00Z,30.4178,-88.4054,0.0,19.4,1111122 
NERRS,ioos:station:NOAA.NERRS:gndbhwq:1,2013-10-05T16:45:00Z,30.4178,-88.4054,0.0,19.2,1111122 
NERRS,ioos:station:NOAA.NERRS:gndbhwq:1,2013-10-05T17:45:00Z,30.4178,-88.4054,0.0,19.3,1111122 
NERRS,ioos:station:NOAA.NERRS:gndbhwq:1,2013-10-05T18:45:00Z,30.4178,-88.4054,0.0,19.3,1111122 
NERRS,ioos:station:NOAA.NERRS:gndbhwq:1,2013-10-05T19:45:00Z,30.4178,-88.4054,0.0,19.2,1111122 
NERRS,ioos:station:NOAA.NERRS:gndbhwq:1,2013-10-05T20:45:00Z,30.4178,-88.4054,0.0,19.3,1111122 
NERRS,ioos:station:NOAA.NERRS:gndbhwq:1,2013-10-05T21:45:00Z,30.4178,-88.4054,0.0,19.3,1111122 
NERRS,ioos:station:NOAA.NERRS:gndbhwq:1,2013-10-05T22:45:00Z,30.4178,-88.4054,0.0,19.3,1111122 
NERRS,ioos:station:NOAA.NERRS:gndbhwq:1,2013-10-05T23:45:00Z,30.4178,-88.4054,0.0,19.4,1111122 
NERRS,ioos:station:NOAA.NERRS:gndbhwq:1,2013-10-06T00:45:00Z,30.4178,-88.4054,0.0,19.4,1111122 
NERRS,ioos:station:NOAA.NERRS:gndbhwq:1,2013-10-06T01:45:00Z,30.4178,-88.4054,0.0,19.5,1111122 
NERRS,ioos:station:NOAA.NERRS:gndbhwq:1,2013-10-06T02:45:00Z,30.4178,-88.4054,0.0,19.5,1111122 
NERRS,ioos:station:NOAA.NERRS:gndbhwq:1,2013-10-06T03:45:00Z,30.4178,-88.4054,0.0,19.5,1111122 
NERRS,ioos:station:NOAA.NERRS:gndbhwq:1,2013-10-06T04:45:00Z,30.4178,-88.4054,0.0,19.5,1111122 
NERRS,ioos:station:NOAA.NERRS:gndbhwq:1,2013-10-06T05:45:00Z,30.4178,-88.4054,0.0,19.5,1111122 
NERRS,ioos:station:NOAA.NERRS:gndbhwq:1,2013-10-06T06:45:00Z,30.4178,-88.4054,0.0,19.5,1111122 
NERRS,ioos:station:NOAA.NERRS:gndbhwq:1,2013-10-06T07:45:00Z,30.4178,-88.4054,0.0,19.5,1111122 
NERRS,ioos:station:NOAA.NERRS:gndbhwq:1,2013-10-06T08:45:00Z,30.4178,-88.4054,0.0,19.3,1111122 
NERRS,ioos:station:NOAA.NERRS:gndbhwq:1,2013-10-06T09:45:00Z,30.4178,-88.4054,0.0,19.1,1111122 
NERRS,ioos:station:NOAA.NERRS:gndbhwq:1,2013-10-06T10:45:00Z,30.4178,-88.4054,0.0,19.2,1111122 
NERRS,ioos:station:NOAA.NERRS:gndbhwq:1,2013-10-06T11:45:00Z,30.4178,-88.4054,0.0,19.3,1111122 
NERRS,ioos:station:NOAA.NERRS:gndbhwq:1,2013-10-06T12:45:00Z,30.4178,-88.4054,0.0,19.2,1111122 
NERRS,ioos:station:NOAA.NERRS:gndbhwq:1,2013-10-06T13:45:00Z,30.4178,-88.4054,0.0,19.3,1111122 
NERRS,ioos:station:NOAA.NERRS:gndbhwq:1,2013-10-06T14:45:00Z,30.4178,-88.4054,0.0,19.2,1111122 
NERRS,ioos:station:NOAA.NERRS:gndbhwq:1,2013-10-06T15:45:00Z,30.4178,-88.4054,0.0,18.7,1111122 
NERRS,ioos:station:NOAA.NERRS:gndbhwq:1,2013-10-06T16:45:00Z,30.4178,-88.4054,0.0,18.9,1111122 
NERRS,ioos:station:NOAA.NERRS:gndbhwq:1,2013-10-06T17:45:00Z,30.4178,-88.4054,0.0,19.2,1111122 
NERRS,ioos:station:NOAA.NERRS:gndbhwq:1,2013-10-06T18:45:00Z,30.4178,-88.4054,0.0,18.4,1111122 
NERRS,ioos:station:NOAA.NERRS:gndbhwq:1,2013-10-06T19:45:00Z,30.4178,-88.4054,0.0,18.9,1111122 
NERRS,ioos:station:NOAA.NERRS:gndbhwq:1,2013-10-06T20:45:00Z,30.4178,-88.4054,0.0,18.4,1111122 
NERRS,ioos:station:NOAA.NERRS:gndbhwq:1,2013-10-06T21:45:00Z,30.4178,-88.4054,0.0,18.9,1111122 
NERRS,ioos:station:NOAA.NERRS:gndbhwq:1,2013-10-06T22:45:00Z,30.4178,-88.4054,0.0,18.8,1111122 
NERRS,ioos:station:NOAA.NERRS:gndbhwq:1,2013-10-06T23:45:00Z,30.4178,-88.4054,0.0,18.9,1111122 
NERRS,ioos:station:NOAA.NERRS:gndbhwq:1,2013-10-07T00:45:00Z,30.4178,-88.4054,0.0,19.1,1111122 
NERRS,ioos:station:NOAA.NERRS:gndbhwq:1,2013-10-07T01:45:00Z,30.4178,-88.4054,0.0,19.1,1111122 
NERRS,ioos:station:NOAA.NERRS:gndbhwq:1,2013-10-07T02:45:00Z,30.4178,-88.4054,0.0,19.1,1111122 
NERRS,ioos:station:NOAA.NERRS:gndbhwq:1,2013-10-07T03:45:00Z,30.4178,-88.4054,0.0,19.0,1111122 
NERRS,ioos:station:NOAA.NERRS:gndbhwq:1,2013-10-07T04:45:00Z,30.4178,-88.4054,0.0,19.0,1111122 
NERRS,ioos:station:NOAA.NERRS:gndbhwq:1,2013-10-07T05:45:00Z,30.4178,-88.4054,0.0,18.9,1111122 
NERRS,ioos:station:NOAA.NERRS:gndbhwq:1,2013-10-07T06:45:00Z,30.4178,-88.4054,0.0,19.0,1111122 
NERRS,ioos:station:NOAA.NERRS:gndbhwq:1,2013-10-07T07:45:00Z,30.4178,-88.4054,0.0,18.8,1111122 
NERRS,ioos:station:NOAA.NERRS:gndbhwq:1,2013-10-07T08:45:00Z,30.4178,-88.4054,0.0,18.8,1111122 
NERRS,ioos:station:NOAA.NERRS:gndbhwq:1,2013-10-07T09:45:00Z,30.4178,-88.4054,0.0,18.8,1111122 
NERRS,ioos:station:NOAA.NERRS:gndbhwq:1,2013-10-07T10:45:00Z,30.4178,-88.4054,0.0,18.7,1111122 
NERRS,ioos:station:NOAA.NERRS:gndbhwq:1,2013-10-07T11:45:00Z,30.4178,-88.4054,0.0,18.9,1111122 
NERRS,ioos:station:NOAA.NERRS:gndbhwq:1,2013-10-07T12:45:00Z,30.4178,-88.4054,0.0,19.0,1111122 
NERRS,ioos:station:NOAA.NERRS:gndbhwq:1,2013-10-07T13:45:00Z,30.4178,-88.4054,0.0,18.7,1111122 
NERRS,ioos:station:NOAA.NERRS:gndbhwq:1,2013-10-07T14:45:00Z,30.4178,-88.4054,0.0,17.9,1111122 
NERRS,ioos:station:NOAA.NERRS:gndbhwq:1,2013-10-07T15:45:00Z,30.4178,-88.4054,0.0,17.0,1111122 
NERRS,ioos:station:NOAA.NERRS:gndbhwq:1,2013-10-07T17:45:00Z,30.4178,-88.4054,0.0,15.5,1111122 
NERRS,ioos:station:NOAA.NERRS:gndbhwq:1,2013-10-07T19:45:00Z,30.4178,-88.4054,0.0,15.9,1111122 
NERRS,ioos:station:NOAA.NERRS:gndbhwq:1,2013-10-07T20:45:00Z,30.4178,-88.4054,0.0,15.5,1111122 
NERRS,ioos:station:NOAA.NERRS:gndbhwq:1,2013-10-07T21:45:00Z,30.4178,-88.4054,0.0,15.5,1111122 
NERRS,ioos:station:NOAA.NERRS:gndbhwq:1,2013-10-07T22:45:00Z,30.4178,-88.4054,0.0,15.7,1111122 
NERRS,ioos:station:NOAA.NERRS:gndbhwq:1,2013-10-07T23:45:00Z,30.4178,-88.4054,0.0,15.3,1111122 
NERRS,ioos:station:NOAA.NERRS:gndbhwq:1,2013-10-08T00:45:00Z,30.4178,-88.4054,0.0,15.5,1111122 
NERRS,ioos:station:NOAA.NERRS:gndbhwq:1,2013-10-08T01:45:00Z,30.4178,-88.4054,0.0,15.7,1111122 
NERRS,ioos:station:NOAA.NERRS:gndbhwq:1,2013-10-08T02:45:00Z,30.4178,-88.4054,0.0,15.6,1111122 
NERRS,ioos:station:NOAA.NERRS:gndbhwq:1,2013-10-08T03:45:00Z,30.4178,-88.4054,0.0,15.7,1111122 
NERRS,ioos:station:NOAA.NERRS:gndbhwq:1,2013-10-08T04:45:00Z,30.4178,-88.4054,0.0,15.6,1111122 
NERRS,ioos:station:NOAA.NERRS:gndbhwq:1,2013-10-08T05:45:00Z,30.4178,-88.4054,0.0,15.7,1111122 
NERRS,ioos:station:NOAA.NERRS:gndbhwq:1,2013-10-08T06:45:00Z,30.4178,-88.4054,0.0,15.7,1111122 
NERRS,ioos:station:NOAA.NERRS:gndbhwq:1,2013-10-08T07:45:00Z,30.4178,-88.4054,0.0,15.7,1111122 
NERRS,ioos:station:NOAA.NERRS:gndbhwq:1,2013-10-08T08:45:00Z,30.4178,-88.4054,0.0,15.7,1111122 
NERRS,ioos:station:NOAA.NERRS:gndbhwq:1,2013-10-08T10:45:00Z,30.4178,-88.4054,0.0,15.8,1111122 
NERRS,ioos:station:NOAA.NERRS:gndbhwq:1,2013-10-08T11:45:00Z,30.4178,-88.4054,0.0,15.9,1111122 
NERRS,ioos:station:NOAA.NERRS:gndbhwq:1,2013-10-08T12:45:00Z,30.4178,-88.4054,0.0,16.2,1111122 
NERRS,ioos:station:NOAA.NERRS:gndbhwq:1,2013-10-08T13:45:00Z,30.4178,-88.4054,0.0,11.9,1111122 
NERRS,ioos:station:NOAA.NERRS:gndbhwq:1,2013-10-08T14:45:00Z,30.4178,-88.4054,0.0,11.5,1111122 
NERRS,ioos:station:NOAA.NERRS:gndbhwq:1,2013-10-08T15:45:00Z,30.4178,-88.4054,0.0,11.6,1111122 
NERRS,ioos:station:NOAA.NERRS:gndbhwq:1,2013-10-08T16:45:00Z,30.4178,-88.4054,0.0,12.6,1111122 
NERRS,ioos:station:NOAA.NERRS:gndbhwq:1,2013-10-08T17:45:00Z,30.4178,-88.4054,0.0,13.5,1111122 
NERRS,ioos:station:NOAA.NERRS:gndbhwq:1,2013-10-08T18:45:00Z,30.4178,-88.4054,0.0,13.2,1111122 
NERRS,ioos:station:NOAA.NERRS:gndbhwq:1,2013-10-08T19:45:00Z,30.4178,-88.4054,0.0,13.5,1111122 
NERRS,ioos:station:NOAA.NERRS:gndbhwq:1,2013-10-08T20:45:00Z,30.4178,-88.4054,0.0,13.7,1111122 
NERRS,ioos:station:NOAA.NERRS:gndbhwq:1,2013-10-08T21:45:00Z,30.4178,-88.4054,0.0,14.0,1111122 
NERRS,ioos:station:NOAA.NERRS:gndbhwq:1,2013-10-08T22:45:00Z,30.4178,-88.4054,0.0,14.3,1111122 
NERRS,ioos:station:NOAA.NERRS:gndbhwq:1,2013-10-08T23:45:00Z,30.4178,-88.4054,0.0,14.5,1111122 
NERRS,ioos:station:NOAA.NERRS:gndbhwq:1,2013-10-09T00:45:00Z,30.4178,-88.4054,0.0,14.9,1111122 
NERRS,ioos:station:NOAA.NERRS:gndbhwq:1,2013-10-09T01:45:00Z,30.4178,-88.4054,0.0,15.1,1111122 
NERRS,ioos:station:NOAA.NERRS:gndbhwq:1,2013-10-09T02:45:00Z,30.4178,-88.4054,0.0,15.3,1111122 
NERRS,ioos:station:NOAA.NERRS:gndbhwq:1,2013-10-09T03:45:00Z,30.4178,-88.4054,0.0,15.5,1111122 
NERRS,ioos:station:NOAA.NERRS:gndbhwq:1,2013-10-09T04:45:00Z,30.4178,-88.4054,0.0,15.6,1111122 
NERRS,ioos:station:NOAA.NERRS:gndbhwq:1,2013-10-09T05:45:00Z,30.4178,-88.4054,0.0,15.6,1111122 
NERRS,ioos:station:NOAA.NERRS:gndbhwq:1,2013-10-09T06:45:00Z,30.4178,-88.4054,0.0,15.6,1111122 
NERRS,ioos:station:NOAA.NERRS:gndbhwq:1,2013-10-09T07:45:00Z,30.4178,-88.4054,0.0,15.7,1111122 
NERRS,ioos:station:NOAA.NERRS:gndbhwq:1,2013-10-09T08:45:00Z,30.4178,-88.4054,0.0,15.9,1111122 
NERRS,ioos:station:NOAA.NERRS:gndbhwq:1,2013-10-09T09:45:00Z,30.4178,-88.4054,0.0,16.0,1111122 
NERRS,ioos:station:NOAA.NERRS:gndbhwq:1,2013-10-09T10:45:00Z,30.4178,-88.4054,0.0,15.9,1111122 
NERRS,ioos:station:NOAA.NERRS:gndbhwq:1,2013-10-09T11:45:00Z,30.4178,-88.4054,0.0,15.6,1111122 
NERRS,ioos:station:NOAA.NERRS:gndbhwq:1,2013-10-09T12:45:00Z,30.4178,-88.4054,0.0,16.0,1111122 
NERRS,ioos:station:NOAA.NERRS:gndbhwq:1,2013-10-09T13:45:00Z,30.4178,-88.4054,0.0,14.7,1111122 
NERRS,ioos:station:NOAA.NERRS:gndbhwq:1,2013-10-09T14:45:00Z,30.4178,-88.4054,0.0,13.7,1111122 
NERRS,ioos:station:NOAA.NERRS:gndbhwq:1,2013-10-09T15:45:00Z,30.4178,-88.4054,0.0,13.3,1111122 
NERRS,ioos:station:NOAA.NERRS:gndbhwq:1,2013-10-09T16:45:00Z,30.4178,-88.4054,0.0,13.0,1111122 
NERRS,ioos:station:NOAA.NERRS:gndbhwq:1,2013-10-09T17:45:00Z,30.4178,-88.4054,0.0,12.2,1111122 
NERRS,ioos:station:NOAA.NERRS:gndbhwq:1,2013-10-09T18:45:00Z,30.4178,-88.4054,0.0,12.3,1111122 
NERRS,ioos:station:NOAA.NERRS:gndbhwq:1,2013-10-09T19:45:00Z,30.4178,-88.4054,0.0,11.3,1111122 
NERRS,ioos:station:NOAA.NERRS:gndbhwq:1,2013-10-09T20:45:00Z,30.4178,-88.4054,0.0,12.0,1111122 
NERRS,ioos:station:NOAA.NERRS:gndbhwq:1,2013-10-09T21:45:00Z,30.4178,-88.4054,0.0,12.9,1111122 
NERRS,ioos:station:NOAA.NERRS:gndbhwq:1,2013-10-09T22:45:00Z,30.4178,-88.4054,0.0,12.5,1111122 
NERRS,ioos:station:NOAA.NERRS:gndbhwq:1,2013-10-09T23:45:00Z,30.4178,-88.4054,0.0,12.9,1111122 
NERRS,ioos:station:NOAA.NERRS:gndbhwq:1,2013-10-10T00:45:00Z,30.4178,-88.4054,0.0,13.3,1111122 
NERRS,ioos:station:NOAA.NERRS:gndbhwq:1,2013-10-10T01:45:00Z,30.4178,-88.4054,0.0,14.0,1111122 
NERRS,ioos:station:NOAA.NERRS:gndbhwq:1,2013-10-10T02:45:00Z,30.4178,-88.4054,0.0,14.4,1111122 
NERRS,ioos:station:NOAA.NERRS:gndbhwq:1,2013-10-10T03:45:00Z,30.4178,-88.4054,0.0,14.4,1111122 
NERRS,ioos:station:NOAA.NERRS:gndbhwq:1,2013-10-10T04:45:00Z,30.4178,-88.4054,0.0,14.6,1111122 
NERRS,ioos:station:NOAA.NERRS:gndbhwq:1,2013-10-10T05:30:00Z,30.4178,-88.4054,0.0,14.8,1111122 
NERRS,ioos:station:NOAA.NERRS:gndbhwq:1,2013-10-10T06:45:00Z,30.4178,-88.4054,0.0,15.3,1111122 
NERRS,ioos:station:NOAA.NERRS:gndbhwq:1,2013-10-10T07:45:00Z,30.4178,-88.4054,0.0,15.4,1111122 
NERRS,ioos:station:NOAA.NERRS:gndbhwq:1,2013-10-10T08:45:00Z,30.4178,-88.4054,0.0,16.1,1111122 
NERRS,ioos:station:NOAA.NERRS:gndbhwq:1,2013-10-10T09:45:00Z,30.4178,-88.4054,0.0,17.6,1111122 
NERRS,ioos:station:NOAA.NERRS:gndbhwq:1,2013-10-10T10:45:00Z,30.4178,-88.4054,0.0,18.6,1111122 
NERRS,ioos:station:NOAA.NERRS:gndbhwq:1,2013-10-10T11:45:00Z,30.4178,-88.4054,0.0,18.4,1111122 
NERRS,ioos:station:NOAA.NERRS:gndbhwq:1,2013-10-10T12:45:00Z,30.4178,-88.4054,0.0,17.6,1111122 
NERRS,ioos:station:NOAA.NERRS:gndbhwq:1,2013-10-10T13:45:00Z,30.4178,-88.4054,0.0,15.9,1111122 
NERRS,ioos:station:NOAA.NERRS:gndbhwq:1,2013-10-10T14:45:00Z,30.4178,-88.4054,0.0,13.1,1111122 
NERRS,ioos:station:NOAA.NERRS:gndbhwq:1,2013-10-10T15:45:00Z,30.4178,-88.4054,0.0,12.5,1111122 
NERRS,ioos:station:NOAA.NERRS:gndbhwq:1,2013-10-10T16:45:00Z,30.4178,-88.4054,0.0,12.2,1111122 
NERRS,ioos:station:NOAA.NERRS:gndbhwq:1,2013-10-10T17:45:00Z,30.4178,-88.4054,0.0,13.3,1111122 
NERRS,ioos:station:NOAA.NERRS:gndbhwq:1,2013-10-10T18:45:00Z,30.4178,-88.4054,0.0,12.2,1111122 
NERRS,ioos:station:NOAA.NERRS:gndbhwq:1,2013-10-10T19:45:00Z,30.4178,-88.4054,0.0,11.2,1111122 
NERRS,ioos:station:NOAA.NERRS:gndbhwq:1,2013-10-10T20:45:00Z,30.4178,-88.4054,0.0,11.3,1111122 
NERRS,ioos:station:NOAA.NERRS:gndbhwq:1,2013-10-10T22:45:00Z,30.4178,-88.4054,0.0,12.0,1111122 
NERRS,ioos:station:NOAA.NERRS:gndbhwq:1,2013-10-10T23:45:00Z,30.4178,-88.4054,0.0,12.6,1111122 
NERRS,ioos:station:NOAA.NERRS:gndbhwq:1,2013-10-11T00:45:00Z,30.4178,-88.4054,0.0,12.6,1111122 
NERRS,ioos:station:NOAA.NERRS:gndbhwq:1,2013-10-11T01:45:00Z,30.4178,-88.4054,0.0,12.3,1111122 
NERRS,ioos:station:NOAA.NERRS:gndbhwq:1,2013-10-11T02:45:00Z,30.4178,-88.4054,0.0,12.9,1111122 
NERRS,ioos:station:NOAA.NERRS:gndbhwq:1,2013-10-11T03:45:00Z,30.4178,-88.4054,0.0,13.4,1111122 
NERRS,ioos:station:NOAA.NERRS:gndbhwq:1,2013-10-11T04:45:00Z,30.4178,-88.4054,0.0,14.5,1111122 
NERRS,ioos:station:NOAA.NERRS:gndbhwq:1,2013-10-11T05:45:00Z,30.4178,-88.4054,0.0,15.3,1111122 
NERRS,ioos:station:NOAA.NERRS:gndbhwq:1,2013-10-11T06:45:00Z,30.4178,-88.4054,0.0,15.8,1111122 
NERRS,ioos:station:NOAA.NERRS:gndbhwq:1,2013-10-11T07:45:00Z,30.4178,-88.4054,0.0,15.8,1111122 
NERRS,ioos:station:NOAA.NERRS:gndbhwq:1,2013-10-11T08:45:00Z,30.4178,-88.4054,0.0,16.2,1111122 
NERRS,ioos:station:NOAA.NERRS:gndbhwq:1,2013-10-11T09:45:00Z,30.4178,-88.4054,0.0,16.5,1111122 
NERRS,ioos:station:NOAA.NERRS:gndbhwq:1,2013-10-11T10:45:00Z,30.4178,-88.4054,0.0,16.7,1111122 
NERRS,ioos:station:NOAA.NERRS:gndbhwq:1,2013-10-11T11:45:00Z,30.4178,-88.4054,0.0,16.9,1111122 
NERRS,ioos:station:NOAA.NERRS:gndbhwq:1,2013-10-11T12:45:00Z,30.4178,-88.4054,0.0,16.3,1111122 
NERRS,ioos:station:NOAA.NERRS:gndbhwq:1,2013-10-11T13:45:00Z,30.4178,-88.4054,0.0,15.1,1111122 
NERRS,ioos:station:NOAA.NERRS:gndbhwq:1,2013-10-11T14:45:00Z,30.4178,-88.4054,0.0,14.3,1111122 